Hourly Data Report for September 24, 2021

MANIWAKI AIRPORT
QUEBEC
Current Station Operator: ECCC - MSC

46°16'29.000" N
75°59'31.000" W
199.70 m
7034482
71721
WMJ

Download Data

Hourly Data (September 2021)
Hourly Data Report for September 24, 2021
TIME
LST
Temp Definition
°C
Dew Point Definition
°C
Rel Hum Definition
%
Precip. Amount Definition
mm

Wind Dir Definition
10's deg

Wind Spd Definition
km/h
Visibility Definition
km
Stn Press Definition
kPa
Hmdx Definition


Wind Chill Definition


Weather Definition


00:00 16.0 15.6 98 1.1 17 9   98.66     LegendNANA
01:00 15.3 14.8 97 0.1 20 6   98.66     LegendNANA
02:00 14.7 14.3 98 0.0 18 6   98.67     LegendNANA
03:00 14.1 13.6 97 0.0 19 8   98.70     LegendNANA
04:00 13.9 13.4 97 0.0 19 6   98.73     LegendNANA
05:00 13.9 12.9 94 0.0 15 11   98.74     LegendNANA
06:00 13.5 11.9 90 0.0 19 13   98.75     LegendNANA
07:00 12.6 11.1 90 0.0 18 11   98.77     LegendNANA
08:00 13.4 10.7 84 0.0 18 19   98.77     LegendNANA
09:00 14.0 10.6 80 0.0 18 17   98.78     LegendNANA
10:00 15.7 11.2 75 0.0 19 15   98.77     LegendNANA
11:00 15.3 11.0 76 0.0 19 20   98.75     LegendNANA
12:00 15.9 11.5 75 0.0 18 14   98.77     LegendNANA
13:00 14.6 12.0 84 0.0 19 13   98.78     LegendNANA
14:00 14.8 11.9 83 0.0 18 14   98.77     LegendNANA
15:00 14.0 12.9 93 0.4 18 14   98.79     LegendNANA
16:00 14.1 12.9 92 0.1 18 13   98.82     LegendNANA
17:00 14.6 12.6 88 0.0 19 13   98.85     LegendNANA
18:00 13.7 12.0 90 0.0 20 12   98.88     LegendNANA
19:00 12.6 11.4 92 0.0 18 11   98.96     LegendNANA
20:00 12.3 11.0 92 0.0 20 9   99.01     LegendNANA
21:00 12.8 10.9 88 0.0 20 11   99.04     LegendNANA
22:00 12.4 10.9 91 0.0 17 7   99.08     LegendNANA
23:00 11.7 10.5 93 0.0 17 7   99.09     LegendNANA

Notes on Data Quality.

Legend

  • E = Estimated
  • M = Missing
  • NA = Not Available*
  • [empty] = Indicates an unobserved value
Date modified: